�������l�o���
Date,Time,MP-1(��Sv/h),MP-2(��Sv/h),MP-3(��Sv/h),MP-4(��Sv/h),MP-5(��Sv/h),MP-6(��Sv/h),MP-7(��Sv/h),����,����(m/s),���J
2015/03/31,00:00,0.557,0.344,0.586,0.539,0.562,0.260,0.234,��,2.6,��
2015/03/31,00:10,0.554,0.343,0.586,0.542,0.564,0.260,0.236,��쓌,2.1,��
2015/03/31,00:20,0.554,0.343,0.583,0.543,0.564,0.261,0.235,��쓌,1.3,��
2015/03/31,00:30,0.556,0.344,0.584,0.540,0.563,0.259,0.233,�쐼,0.9,��
2015/03/31,00:40,0.556,0.343,0.588,0.540,0.564,0.259,0.235,-,CALM,��
2015/03/31,00:50,0.554,0.343,0.583,0.544,0.564,0.259,0.236,-,CALM,��
2015/03/31,01:00,0.556,0.343,0.583,0.539,0.562,0.260,0.235,-,CALM,��
2015/03/31,01:10,0.557,0.342,0.587,0.540,0.563,0.260,0.235,-,CALM,��
2015/03/31,01:20,0.554,0.340,0.586,0.544,0.562,0.260,0.234,-,CALM,��
2015/03/31,01:30,0.554,0.343,0.583,0.540,0.563,0.260,0.234,-,CALM,��
2015/03/31,01:40,0.558,0.344,0.585,0.540,0.563,0.260,0.233,-,CALM,��
2015/03/31,01:50,0.554,0.344,0.584,0.540,0.564,0.261,0.235,-,CALM,��
2015/03/31,02:00,0.556,0.343,0.584,0.540,0.563,0.259,0.235,��쓌,1.8,��
2015/03/31,02:10,0.556,0.342,0.584,0.539,0.560,0.260,0.234,��쓌,1.7,��
2015/03/31,02:20,0.553,0.342,0.586,0.539,0.563,0.259,0.234,��,2.0,��
2015/03/31,02:30,0.555,0.343,0.583,0.541,0.563,0.258,0.234,��,1.4,��
2015/03/31,02:40,0.557,0.340,0.586,0.540,0.560,0.260,0.234,��쐼,1.9,��
2015/03/31,02:50,0.556,0.343,0.589,0.538,0.562,0.260,0.235,��,1.4,��
2015/03/31,03:00,0.553,0.343,0.585,0.540,0.563,0.260,0.235,��,1.3,��
2015/03/31,03:10,0.557,0.341,0.584,0.541,0.563,0.260,0.234,��쐼,1.4,��
2015/03/31,03:20,0.553,0.341,0.586,0.537,0.562,0.260,0.235,��,1.9,��
2015/03/31,03:30,0.553,0.343,0.584,0.540,0.564,0.258,0.235,��쓌,1.7,��
2015/03/31,03:40,0.557,0.343,0.583,0.542,0.561,0.260,0.233,��,2.2,��
2015/03/31,03:50,0.555,0.343,0.587,0.539,0.561,0.260,0.234,��,2.6,��
2015/03/31,04:00,0.554,0.343,0.584,0.539,0.561,0.260,0.234,��,1.4,��
2015/03/31,04:10,0.555,0.343,0.583,0.539,0.562,0.259,0.235,-,CALM,��
2015/03/31,04:20,0.555,0.342,0.585,0.540,0.563,0.259,0.234,�k��,0.5,��
2015/03/31,04:30,0.554,0.342,0.588,0.540,0.561,0.259,0.232,�k�k��,1.3,��
2015/03/31,04:40,0.557,0.343,0.585,0.540,0.563,0.261,0.233,-,CALM,��
2015/03/31,04:50,0.556,0.343,0.585,0.540,0.563,0.259,0.234,�k�k��,1.2,��
2015/03/31,05:00,0.553,0.343,0.587,0.540,0.561,0.260,0.234,-,CALM,��
2015/03/31,05:10,0.555,0.342,0.585,0.538,0.562,0.260,0.235,-,CALM,��
2015/03/31,05:20,0.555,0.343,0.585,0.539,0.565,0.259,0.234,�k,0.6,��
2015/03/31,05:30,0.552,0.343,0.586,0.540,0.560,0.260,0.234,�k��,0.6,��
2015/03/31,05:40,0.553,0.343,0.586,0.540,0.563,0.261,0.234,-,CALM,��
2015/03/31,05:50,0.556,0.343,0.584,0.538,0.564,0.258,0.235,-,CALM,��
2015/03/31,06:00,0.555,0.344,0.584,0.541,0.564,0.260,0.234,�k,0.6,��
2015/03/31,06:10,0.552,0.343,0.587,0.538,0.564,0.260,0.234,�k��,1.0,��
2015/03/31,06:20,0.557,0.343,0.583,0.539,0.566,0.259,0.233,�k�k��,0.9,��
2015/03/31,06:30,0.553,0.340,0.585,0.540,0.564,0.260,0.235,�k,0.8,��
2015/03/31,06:40,0.555,0.343,0.587,0.542,0.561,0.259,0.232,-,CALM,��
2015/03/31,06:50,0.555,0.344,0.584,0.541,0.563,0.260,0.234,-,CALM,��
2015/03/31,07:00,0.556,0.343,0.585,0.539,0.564,0.260,0.233,-,CALM,��
2015/03/31,07:10,0.556,0.342,0.587,0.541,0.562,0.259,0.235,-,CALM,��
2015/03/31,07:20,0.556,0.344,0.584,0.537,0.564,0.260,0.233,-,CALM,��
2015/03/31,07:30,0.554,0.342,0.585,0.540,0.564,0.259,0.234,��,0.8,��
2015/03/31,07:40,0.554,0.343,0.587,0.537,0.558,0.260,0.233,�쓌,1.0,��
2015/03/31,07:50,0.557,0.343,0.582,0.536,0.564,0.259,0.234,���쓌,1.1,��
2015/03/31,08:00,0.552,0.341,0.584,0.540,0.563,0.258,0.232,��,1.1,��
2015/03/31,08:10,0.552,0.343,0.586,0.538,0.560,0.260,0.235,��,1.1,��
2015/03/31,08:20,0.556,0.341,0.582,0.538,0.564,0.259,0.233,���쓌,0.6,��
2015/03/31,08:30,0.552,0.341,0.584,0.539,0.561,0.258,0.233,-,CALM,��
2015/03/31,08:40,0.556,0.344,0.586,0.538,0.564,0.257,0.233,�쓌,1.1,��
2015/03/31,08:50,0.554,0.340,0.581,0.540,0.563,0.258,0.233,��쓌,1.7,��
2015/03/31,09:00,0.552,0.343,0.584,0.538,0.564,0.260,0.234,��,3.6,��
2015/03/31,09:10,0.555,0.341,0.585,0.540,0.564,0.259,0.233,��,4.5,��
2015/03/31,09:20,0.551,0.342,0.581,0.538,0.560,0.259,0.234,��쓌,5.1,��
2015/03/31,09:30,0.555,0.341,0.586,0.541,0.565,0.259,0.233,��,5.9,��
2015/03/31,09:40,0.554,0.341,0.582,0.535,0.560,0.260,0.233,��,6.4,��
2015/03/31,09:50,0.555,0.342,0.586,0.541,0.567,0.259,0.234,��,5.9,��
2015/03/31,10:00,0.550,0.341,0.585,0.535,0.560,0.259,0.233,��,5.3,��
2015/03/31,10:10,0.555,0.340,0.585,0.539,0.564,0.258,0.234,��,5.2,��
2015/03/31,10:20,0.552,0.341,0.583,0.535,0.561,0.259,0.232,��쓌,3.7,��
2015/03/31,10:30,0.553,0.341,0.582,0.541,0.560,0.258,0.233,��,4.3,��
2015/03/31,10:40,0.555,0.340,0.586,0.538,0.563,0.259,0.233,��,3.4,��
2015/03/31,10:50,0.553,0.342,0.581,0.539,0.559,0.256,0.233,��쓌,5.6,��
2015/03/31,11:00,0.555,0.343,0.585,0.541,0.568,0.259,0.232,��쓌,7.1,��
2015/03/31,11:10,0.553,0.342,0.581,0.536,0.559,0.257,0.233,��,6.7,��
2015/03/31,11:20,0.552,0.342,0.578,0.542,0.565,0.257,0.232,��,7.5,��
2015/03/31,11:30,0.553,0.343,0.583,0.536,0.562,0.258,0.233,��,9.8,��
2015/03/31,11:40,0.550,0.344,0.579,0.536,0.557,0.257,0.232,��,9.5,��
2015/03/31,11:50,0.554,0.339,0.579,0.541,0.564,0.257,0.232,��,10.9,��
2015/03/31,12:00,0.549,0.343,0.585,0.535,0.561,0.257,0.232,��쓌,10.4,��
2015/03/31,12:10,0.550,0.341,0.581,0.542,0.561,0.258,0.234,��쓌,10.7,��
2015/03/31,12:20,0.554,0.341,0.581,0.540,0.567,0.258,0.232,��,9.2,��
2015/03/31,12:30,0.551,0.342,0.587,0.539,0.562,0.258,0.233,��,10.2,��
2015/03/31,12:40,0.555,0.340,0.580,0.542,0.568,0.259,0.232,��쐼,7.2,��
2015/03/31,12:50,0.553,0.344,0.585,0.536,0.565,0.258,0.233,��쐼,6.1,��
2015/03/31,13:00,0.549,0.342,0.585,0.533,0.558,0.259,0.234,��쐼,5.9,��
2015/03/31,13:10,0.554,0.339,0.584,0.537,0.556,0.259,0.232,��쐼,8.0,��
2015/03/31,13:20,0.555,0.341,0.580,0.540,0.556,0.256,0.235,��쐼,10.1,��
2015/03/31,13:30,0.551,0.344,0.576,0.537,0.556,0.259,0.233,��쐼,9.5,��
2015/03/31,13:40,0.550,0.342,0.577,0.534,0.567,0.259,0.231,��쐼,10.7,��
2015/03/31,13:50,0.558,0.339,0.580,0.535,0.568,0.260,0.232,��쐼,11.6,��
2015/03/31,14:00,0.553,0.339,0.587,0.543,0.564,0.259,0.233,��쐼,13.3,��
2015/03/31,14:10,0.549,0.343,0.585,0.540,0.561,0.259,0.233,��쐼,10.8,��
2015/03/31,14:20,0.555,0.344,0.581,0.535,0.564,0.258,0.232,��쐼,9.9,��
2015/03/31,14:30,0.554,0.341,0.581,0.544,0.567,0.259,0.232,��쐼,9.1,��
2015/03/31,14:40,0.551,0.340,0.588,0.541,0.563,0.259,0.231,��쐼,10.0,��
2015/03/31,14:50,0.552,0.345,0.586,0.535,0.559,0.259,0.232,��쐼,11.8,��
2015/03/31,15:00,0.558,0.341,0.579,0.544,0.565,0.259,0.234,��쐼,9.3,��
2015/03/31,15:10,0.554,0.341,0.588,0.542,0.569,0.258,0.233,��쐼,9.8,��
2015/03/31,15:20,0.550,0.342,0.588,0.539,0.563,0.258,0.232,��쐼,9.3,��
2015/03/31,15:30,0.555,0.345,0.582,0.544,0.558,0.259,0.234,��쐼,8.5,��
2015/03/31,15:40,0.556,0.339,0.590,0.539,0.563,0.259,0.234,��쐼,7.1,��
2015/03/31,15:50,0.551,0.345,0.588,0.542,0.567,0.258,0.234,��쐼,8.1,��
2015/03/31,16:00,0.557,0.343,0.582,0.542,0.562,0.258,0.232,��쐼,6.0,��
2015/03/31,16:10,0.555,0.343,0.592,0.540,0.560,0.258,0.233,��,3.9,��
2015/03/31,16:20,0.553,0.344,0.582,0.542,0.569,0.256,0.233,��,7.0,��
2015/03/31,16:30,0.559,0.343,0.589,0.538,0.567,0.259,0.234,��,8.7,��
2015/03/31,16:40,0.553,0.345,0.587,0.542,0.563,0.258,0.233,��,9.6,��
2015/03/31,16:50,0.560,0.341,0.583,0.537,0.569,0.259,0.233,��쐼,9.4,��
2015/03/31,17:00,0.553,0.344,0.590,0.544,0.563,0.261,0.232,��쐼,7.8,��
2015/03/31,17:10,0.557,0.343,0.582,0.538,0.567,0.259,0.234,��쐼,7.1,��
2015/03/31,17:20,0.553,0.344,0.588,0.545,0.565,0.261,0.233,��쐼,6.4,��
2015/03/31,17:30,0.558,0.341,0.584,0.540,0.565,0.258,0.233,��쐼,4.1,��
2015/03/31,17:40,0.555,0.343,0.588,0.541,0.566,0.260,0.233,��쐼,3.3,��
2015/03/31,17:50,0.555,0.341,0.583,0.539,0.564,0.259,0.233,��쐼,3.5,��
2015/03/31,18:00,0.554,0.343,0.586,0.544,0.566,0.258,0.233,��쐼,3.6,��
2015/03/31,18:10,0.557,0.342,0.583,0.541,0.563,0.259,0.233,��쐼,2.8,��
2015/03/31,18:20,0.554,0.343,0.588,0.543,0.567,0.259,0.233,��쐼,2.1,��
2015/03/31,18:30,0.557,0.343,0.586,0.540,0.565,0.258,0.232,��쐼,2.5,��
2015/03/31,18:40,0.552,0.343,0.586,0.544,0.566,0.257,0.233,��쐼,1.0,��
2015/03/31,18:50,0.556,0.343,0.583,0.538,0.565,0.259,0.232,-,CALM,��
2015/03/31,19:00,0.553,0.343,0.589,0.542,0.564,0.258,0.234,-,CALM,��
2015/03/31,19:10,0.557,0.343,0.584,0.541,0.565,0.260,0.234,�k�k��,1.0,��
2015/03/31,19:20,0.553,0.343,0.589,0.541,0.564,0.258,0.233,�k,0.9,��
2015/03/31,19:30,0.554,0.344,0.584,0.542,0.567,0.260,0.234,�k��,1.2,��
2015/03/31,19:40,0.555,0.342,0.588,0.544,0.563,0.260,0.233,�k��,1.1,��
2015/03/31,19:50,0.554,0.342,0.583,0.543,0.567,0.259,0.233,�k�k��,0.8,��
2015/03/31,20:00,0.556,0.344,0.587,0.540,0.563,0.260,0.234,-,CALM,��
2015/03/31,20:10,0.552,0.343,0.586,0.544,0.568,0.259,0.234,-,CALM,��
2015/03/31,20:20,0.556,0.344,0.585,0.539,0.563,0.259,0.234,��,0.7,��
2015/03/31,20:30,0.552,0.343,0.588,0.542,0.563,0.259,0.233,��쐼,2.0,��
2015/03/31,20:40,0.557,0.343,0.585,0.540,0.564,0.259,0.235,��쐼,2.7,��
2015/03/31,20:50,0.553,0.344,0.587,0.540,0.564,0.260,0.234,��쐼,2.5,��
2015/03/31,21:00,0.557,0.343,0.584,0.542,0.564,0.260,0.234,��쐼,2.8,��
2015/03/31,21:10,0.553,0.345,0.587,0.539,0.561,0.259,0.233,��쐼,2.5,��
2015/03/31,21:20,0.555,0.343,0.584,0.543,0.566,0.262,0.234,��쐼,2.5,��
2015/03/31,21:30,0.557,0.345,0.588,0.542,0.561,0.259,0.233,��쐼,4.2,��
2015/03/31,21:40,0.554,0.345,0.588,0.541,0.568,0.261,0.234,��쐼,3.3,��
2015/03/31,21:50,0.556,0.343,0.584,0.543,0.563,0.259,0.234,�쐼,3.4,��
2015/03/31,22:00,0.553,0.345,0.588,0.541,0.566,0.260,0.234,��쐼,3.0,��
2015/03/31,22:10,0.557,0.343,0.584,0.544,0.562,0.259,0.235,�쐼,3.5,��
2015/03/31,22:20,0.554,0.343,0.589,0.541,0.564,0.259,0.234,�쐼,4.1,��
2015/03/31,22:30,0.556,0.343,0.585,0.544,0.565,0.260,0.234,��쐼,3.7,��
2015/03/31,22:40,0.555,0.342,0.587,0.540,0.563,0.260,0.235,��쐼,2.8,��
2015/03/31,22:50,0.552,0.345,0.585,0.540,0.567,0.258,0.234,�쐼,4.0,��
2015/03/31,23:00,0.557,0.342,0.585,0.542,0.560,0.261,0.234,�쐼,5.5,��
2015/03/31,23:10,0.552,0.343,0.587,0.540,0.567,0.260,0.233,���쐼,5.9,��
2015/03/31,23:20,0.556,0.345,0.583,0.543,0.564,0.260,0.235,���쐼,5.7,��
2015/03/31,23:30,0.554,0.343,0.589,0.540,0.567,0.260,0.233,�쐼,4.7,��
2015/03/31,23:40,0.555,0.344,0.586,0.543,0.562,0.259,0.234,�쐼,4.5,��
2015/03/31,23:50,0.555,0.343,0.589,0.542,0.566,0.259,0.235,��쐼,4.6,��
